Time,TemperatureF,DewpointF,PressureIn,WindDirection,WindDirectionDegrees,WindSpeedMPH,WindSpeedGustMPH,Humidity,HourlyPrecipIn,Conditions,Clouds,dailyrainin,SolarRadiationWatts/m^2,SoftwareType,DateUTC
2013-03-22 00:12:00,29.0,11.0,-100.00,North,357,0.0,8.0,47,0.00,,,0.00,0.000000,,2013-03-22 04:12:00,
2013-03-22 00:23:00,29.0,11.0,-100.00,North,357,0.0,8.0,47,0.00,,,0.00,0.000000,,2013-03-22 04:23:00,
2013-03-22 00:32:00,29.0,11.0,-100.00,North,357,0.0,8.0,47,0.00,,,0.00,0.000000,,2013-03-22 04:32:00,
2013-03-22 00:43:00,29.0,11.0,-100.00,North,357,0.0,8.0,47,0.00,,,0.00,0.000000,,2013-03-22 04:43:00,
2013-03-22 00:52:00,30.0,12.0,-100.00,ENE,75,3.0,7.0,46,0.00,,,0.00,0.000000,,2013-03-22 04:52:00,
2013-03-22 01:12:00,30.0,12.0,-100.00,ENE,75,3.0,7.0,46,0.00,,,0.00,0.000000,,2013-03-22 05:12:00,
2013-03-22 01:22:00,30.0,12.0,-100.00,ENE,75,3.0,7.0,46,0.00,,,0.00,0.000000,,2013-03-22 05:22:00,
2013-03-22 01:32:00,30.0,12.0,-100.00,ENE,75,3.0,7.0,46,0.00,,,0.00,0.000000,,2013-03-22 05:32:00,
2013-03-22 01:42:00,30.0,12.0,-100.00,ENE,75,3.0,7.0,46,0.00,,,0.00,0.000000,,2013-03-22 05:42:00,
2013-03-22 01:52:00,29.0,10.0,-100.00,East,79,2.0,10.0,45,0.00,,,0.00,0.000000,,2013-03-22 05:52:00,
2013-03-22 02:13:00,29.0,10.0,-100.00,East,79,2.0,10.0,45,0.00,,,0.00,0.000000,,2013-03-22 06:13:00,
2013-03-22 02:22:00,29.0,10.0,-100.00,East,79,2.0,10.0,45,0.00,,,0.00,0.000000,,2013-03-22 06:22:00,
2013-03-22 02:32:00,29.0,10.0,-100.00,East,79,2.0,10.0,45,0.00,,,0.00,0.000000,,2013-03-22 06:32:00,
2013-03-22 02:42:00,29.0,10.0,-100.00,East,79,2.0,10.0,45,0.00,,,0.00,0.000000,,2013-03-22 06:42:00,
2013-03-22 02:52:00,27.0,11.0,-100.00,NE,56,0.0,6.0,51,0.00,,,0.00,0.000000,,2013-03-22 06:52:00,
2013-03-22 03:12:00,27.0,11.0,-100.00,NE,56,0.0,6.0,51,0.00,,,0.00,0.000000,,2013-03-22 07:12:00,
2013-03-22 03:22:00,27.0,11.0,-100.00,NE,56,0.0,6.0,51,0.00,,,0.00,0.000000,,2013-03-22 07:22:00,
2013-03-22 03:32:00,27.0,11.0,-100.00,NE,56,0.0,6.0,51,0.00,,,0.00,0.000000,,2013-03-22 07:32:00,
2013-03-22 03:42:00,27.0,11.0,-100.00,NE,56,0.0,6.0,51,0.00,,,0.00,0.000000,,2013-03-22 07:42:00,
2013-03-22 03:52:00,25.0,11.0,-100.00,ENE,57,0.0,3.0,55,0.00,,,0.00,0.000000,,2013-03-22 07:52:00,
2013-03-22 04:13:00,25.0,11.0,-100.00,ENE,57,0.0,3.0,55,0.00,,,0.00,0.000000,,2013-03-22 08:13:00,
2013-03-22 04:22:00,25.0,11.0,-100.00,ENE,57,0.0,3.0,55,0.00,,,0.00,0.000000,,2013-03-22 08:22:00,
2013-03-22 04:32:00,25.0,11.0,-100.00,ENE,57,0.0,3.0,55,0.00,,,0.00,0.000000,,2013-03-22 08:32:00,
2013-03-22 04:42:00,25.0,11.0,-100.00,ENE,57,0.0,3.0,55,0.00,,,0.00,0.000000,,2013-03-22 08:42:00,
2013-03-22 04:52:00,24.0,11.0,-100.00,NNE,33,0.0,3.0,58,0.00,,,0.00,0.000000,,2013-03-22 08:52:00,
2013-03-22 05:12:00,24.0,11.0,-100.00,NNE,33,0.0,3.0,58,0.00,,,0.00,0.000000,,2013-03-22 09:12:00,
2013-03-22 05:22:00,24.0,11.0,-100.00,NNE,33,0.0,3.0,58,0.00,,,0.00,0.000000,,2013-03-22 09:22:00,
2013-03-22 05:33:00,24.0,11.0,-100.00,NNE,33,0.0,3.0,58,0.00,,,0.00,0.000000,,2013-03-22 09:33:00,
2013-03-22 05:42:00,24.0,11.0,-100.00,NNE,33,0.0,3.0,58,0.00,,,0.00,0.000000,,2013-03-22 09:42:00,
2013-03-22 05:52:00,24.0,12.0,-100.00,ENE,65,1.0,4.0,60,0.00,,,0.00,0.000000,,2013-03-22 09:52:00,
2013-03-22 06:23:00,24.0,12.0,-100.00,ENE,65,1.0,4.0,60,0.00,,,0.00,0.000000,,2013-03-22 10:23:00,
2013-03-22 06:33:00,24.0,12.0,-100.00,ENE,65,1.0,4.0,60,0.00,,,0.00,0.000000,,2013-03-22 10:33:00,
2013-03-22 06:42:00,24.0,12.0,-100.00,ENE,65,1.0,4.0,60,0.00,,,0.00,0.000000,,2013-03-22 10:42:00,
2013-03-22 06:52:00,21.0,12.0,-100.00,NE,37,0.0,4.0,69,0.00,,,0.00,0.000000,,2013-03-22 10:52:00,
2013-03-22 07:12:00,21.0,12.0,-100.00,NE,37,0.0,4.0,69,0.00,,,0.00,0.000000,,2013-03-22 11:12:00,
2013-03-22 07:22:00,21.0,12.0,-100.00,NE,37,0.0,4.0,69,0.00,,,0.00,0.000000,,2013-03-22 11:22:00,
2013-03-22 07:33:00,21.0,12.0,-100.00,NE,37,0.0,4.0,69,0.00,,,0.00,0.000000,,2013-03-22 11:33:00,
2013-03-22 07:42:00,21.0,12.0,-100.00,NE,37,0.0,4.0,69,0.00,,,0.00,0.000000,,2013-03-22 11:42:00,
2013-03-22 07:52:00,21.0,14.0,-100.00,NNE,17,0.0,3.0,73,0.00,,,0.00,8.000000,,2013-03-22 11:52:00,
2013-03-22 08:12:00,21.0,14.0,-100.00,NNE,17,0.0,3.0,73,0.00,,,0.00,8.000000,,2013-03-22 12:12:00,
2013-03-22 08:22:00,21.0,14.0,-100.00,NNE,17,0.0,3.0,73,0.00,,,0.00,8.000000,,2013-03-22 12:22:00,
2013-03-22 08:32:00,21.0,14.0,-100.00,NNE,17,0.0,3.0,73,0.00,,,0.00,8.000000,,2013-03-22 12:32:00,
2013-03-22 08:42:00,21.0,14.0,-100.00,NNE,17,0.0,3.0,73,0.00,,,0.00,8.000000,,2013-03-22 12:42:00,
2013-03-22 08:52:00,32.0,14.0,-100.00,ENE,66,3.0,8.0,47,0.00,,,0.00,148.000000,,2013-03-22 12:52:00,
2013-03-22 09:13:00,32.0,14.0,-100.00,ENE,66,3.0,8.0,47,0.00,,,0.00,148.000000,,2013-03-22 13:13:00,
2013-03-22 09:22:00,32.0,14.0,-100.00,ENE,66,3.0,8.0,47,0.00,,,0.00,148.000000,,2013-03-22 13:22:00,
2013-03-22 09:32:00,32.0,14.0,-100.00,ENE,66,3.0,8.0,47,0.00,,,0.00,148.000000,,2013-03-22 13:32:00,
2013-03-22 09:42:00,32.0,14.0,-100.00,ENE,66,3.0,8.0,47,0.00,,,0.00,148.000000,,2013-03-22 13:42:00,
2013-03-22 09:52:00,37.0,13.0,-100.00,ENE,74,3.0,10.0,37,0.00,,,0.00,379.000000,,2013-03-22 13:52:00,
2013-03-22 10:22:00,37.0,13.0,-100.00,ENE,74,3.0,10.0,37,0.00,,,0.00,379.000000,,2013-03-22 14:22:00,
2013-03-22 10:32:00,37.0,13.0,-100.00,ENE,74,3.0,10.0,37,0.00,,,0.00,379.000000,,2013-03-22 14:32:00,
2013-03-22 10:43:00,37.0,13.0,-100.00,ENE,74,3.0,10.0,37,0.00,,,0.00,379.000000,,2013-03-22 14:43:00,
2013-03-22 10:52:00,42.0,12.0,-100.00,NNE,31,3.0,12.0,29,0.00,,,0.00,582.000000,,2013-03-22 14:52:00,
2013-03-22 11:12:00,42.0,12.0,-100.00,NNE,31,3.0,12.0,29,0.00,,,0.00,582.000000,,2013-03-22 15:12:00,
2013-03-22 11:22:00,42.0,12.0,-100.00,NNE,31,3.0,12.0,29,0.00,,,0.00,582.000000,,2013-03-22 15:22:00,
2013-03-22 11:33:00,42.0,12.0,-100.00,NNE,31,3.0,12.0,29,0.00,,,0.00,582.000000,,2013-03-22 15:33:00,
2013-03-22 11:43:00,42.0,12.0,-100.00,NNE,31,3.0,12.0,29,0.00,,,0.00,582.000000,,2013-03-22 15:43:00,
2013-03-22 11:52:00,46.0,11.0,-100.00,NNE,25,2.0,14.0,24,0.00,,,0.00,741.000000,,2013-03-22 15:52:00,
2013-03-22 12:13:00,46.0,11.0,-100.00,NNE,25,2.0,14.0,24,0.00,,,0.00,741.000000,,2013-03-22 16:13:00,
2013-03-22 12:23:00,46.0,11.0,-100.00,NNE,25,2.0,14.0,24,0.00,,,0.00,741.000000,,2013-03-22 16:23:00,
2013-03-22 12:32:00,46.0,11.0,-100.00,NNE,25,2.0,14.0,24,0.00,,,0.00,741.000000,,2013-03-22 16:32:00,
2013-03-22 12:42:00,46.0,11.0,-100.00,NNE,25,2.0,14.0,24,0.00,,,0.00,741.000000,,2013-03-22 16:42:00,
2013-03-22 12:52:00,48.0,11.0,-100.00,NE,56,3.0,12.0,22,0.00,,,0.00,915.000000,,2013-03-22 16:52:00,
2013-03-22 13:23:00,48.0,11.0,-100.00,NE,56,3.0,12.0,22,0.00,,,0.00,915.000000,,2013-03-22 17:23:00,
2013-03-22 13:32:00,48.0,11.0,-100.00,NE,56,3.0,12.0,22,0.00,,,0.00,915.000000,,2013-03-22 17:32:00,
2013-03-22 13:42:00,48.0,11.0,-100.00,NE,56,3.0,12.0,22,0.00,,,0.00,915.000000,,2013-03-22 17:42:00,
2013-03-22 13:52:00,48.0,9.0,-100.00,NNE,14,5.0,14.0,20,0.00,,,0.00,974.000000,,2013-03-22 17:52:00,
2013-03-22 14:12:00,48.0,9.0,-100.00,NNE,14,5.0,14.0,20,0.00,,,0.00,974.000000,,2013-03-22 18:12:00,
2013-03-22 14:22:00,48.0,9.0,-100.00,NNE,14,5.0,14.0,20,0.00,,,0.00,974.000000,,2013-03-22 18:22:00,
2013-03-22 14:33:00,48.0,9.0,-100.00,NNE,14,5.0,14.0,20,0.00,,,0.00,974.000000,,2013-03-22 18:33:00,
2013-03-22 14:42:00,48.0,9.0,-100.00,NNE,14,5.0,14.0,20,0.00,,,0.00,974.000000,,2013-03-22 18:42:00,
2013-03-22 14:52:00,52.0,9.0,-100.00,NE,34,3.0,15.0,17,0.00,,,0.00,966.000000,,2013-03-22 18:52:00,
2013-03-22 15:12:00,52.0,9.0,-100.00,NE,34,3.0,15.0,17,0.00,,,0.00,966.000000,,2013-03-22 19:12:00,
2013-03-22 15:22:00,52.0,9.0,-100.00,NE,34,3.0,15.0,17,0.00,,,0.00,966.000000,,2013-03-22 19:22:00,
2013-03-22 15:32:00,52.0,9.0,-100.00,NE,34,3.0,15.0,17,0.00,,,0.00,966.000000,,2013-03-22 19:32:00,
2013-03-22 15:43:00,52.0,9.0,-100.00,NE,34,3.0,15.0,17,0.00,,,0.00,966.000000,,2013-03-22 19:43:00,
2013-03-22 15:52:00,54.0,9.0,-100.00,NNE,21,3.0,17.0,16,0.00,,,0.00,813.000000,,2013-03-22 19:52:00,
2013-03-22 16:13:00,54.0,9.0,-100.00,NNE,21,3.0,17.0,16,0.00,,,0.00,813.000000,,2013-03-22 20:13:00,
2013-03-22 16:22:00,54.0,9.0,-100.00,NNE,21,3.0,17.0,16,0.00,,,0.00,813.000000,,2013-03-22 20:22:00,
2013-03-22 16:32:00,54.0,9.0,-100.00,NNE,21,3.0,17.0,16,0.00,,,0.00,813.000000,,2013-03-22 20:32:00,
2013-03-22 16:43:00,54.0,9.0,-100.00,NNE,21,3.0,17.0,16,0.00,,,0.00,813.000000,,2013-03-22 20:43:00,
2013-03-22 16:52:00,51.0,5.0,-100.00,NE,50,5.0,13.0,15,0.00,,,0.00,621.000000,,2013-03-22 20:52:00,
2013-03-22 17:22:00,51.0,5.0,-100.00,NE,50,5.0,13.0,15,0.00,,,0.00,621.000000,,2013-03-22 21:22:00,
2013-03-22 17:33:00,51.0,5.0,-100.00,NE,50,5.0,13.0,15,0.00,,,0.00,621.000000,,2013-03-22 21:33:00,
2013-03-22 17:43:00,51.0,5.0,-100.00,NE,50,5.0,13.0,15,0.00,,,0.00,621.000000,,2013-03-22 21:43:00,
2013-03-22 17:52:00,52.0,9.0,-100.00,NE,53,3.0,13.0,17,0.00,,,0.00,504.000000,,2013-03-22 21:52:00,
2013-03-22 18:12:00,52.0,9.0,-100.00,NE,53,3.0,13.0,17,0.00,,,0.00,504.000000,,2013-03-22 22:12:00,
2013-03-22 18:23:00,52.0,9.0,-100.00,NE,53,3.0,13.0,17,0.00,,,0.00,504.000000,,2013-03-22 22:23:00,
2013-03-22 18:32:00,52.0,9.0,-100.00,NE,53,3.0,13.0,17,0.00,,,0.00,504.000000,,2013-03-22 22:32:00,
2013-03-22 18:43:00,52.0,9.0,-100.00,NE,53,3.0,13.0,17,0.00,,,0.00,504.000000,,2013-03-22 22:43:00,
2013-03-22 18:52:00,48.0,11.0,-100.00,NE,54,1.0,10.0,22,0.00,,,0.00,182.000000,,2013-03-22 22:52:00,
2013-03-22 19:22:00,48.0,11.0,-100.00,NE,54,1.0,10.0,22,0.00,,,0.00,182.000000,,2013-03-22 23:22:00,
2013-03-22 19:32:00,48.0,11.0,-100.00,NE,54,1.0,10.0,22,0.00,,,0.00,182.000000,,2013-03-22 23:32:00,
2013-03-22 19:42:00,48.0,11.0,-100.00,NE,54,1.0,10.0,22,0.00,,,0.00,182.000000,,2013-03-22 23:42:00,
2013-03-22 19:52:00,40.0,13.0,-100.00,NNW,342,0.0,3.0,32,0.00,,,0.00,9.000000,,2013-03-22 23:52:00,
2013-03-22 20:12:00,40.0,13.0,-100.00,NNW,342,0.0,3.0,32,0.00,,,0.00,9.000000,,2013-03-23 00:12:00,
2013-03-22 20:23:00,40.0,13.0,-100.00,NNW,342,0.0,3.0,32,0.00,,,0.00,9.000000,,2013-03-23 00:23:00,
2013-03-22 20:33:00,40.0,13.0,-100.00,NNW,342,0.0,3.0,32,0.00,,,0.00,9.000000,,2013-03-23 00:33:00,
2013-03-22 20:42:00,40.0,13.0,-100.00,NNW,342,0.0,3.0,32,0.00,,,0.00,9.000000,,2013-03-23 00:42:00,
2013-03-22 20:52:00,37.0,11.0,-100.00,NNE,20,0.0,1.0,34,0.00,,,0.00,0.000000,,2013-03-23 00:52:00,
2013-03-22 21:22:00,37.0,11.0,-100.00,NNE,20,0.0,1.0,34,0.00,,,0.00,0.000000,,2013-03-23 01:22:00,
2013-03-22 21:32:00,37.0,11.0,-100.00,NNE,20,0.0,1.0,34,0.00,,,0.00,0.000000,,2013-03-23 01:32:00,
2013-03-22 21:43:00,37.0,11.0,-100.00,NNE,20,0.0,1.0,34,0.00,,,0.00,0.000000,,2013-03-23 01:43:00,
2013-03-22 21:52:00,38.0,12.0,-100.00,North,8,0.0,2.0,34,0.00,,,0.00,0.000000,,2013-03-23 01:52:00,
2013-03-22 22:12:00,38.0,12.0,-100.00,North,8,0.0,2.0,34,0.00,,,0.00,0.000000,,2013-03-23 02:12:00,
2013-03-22 22:22:00,38.0,12.0,-100.00,North,8,0.0,2.0,34,0.00,,,0.00,0.000000,,2013-03-23 02:22:00,
2013-03-22 22:32:00,38.0,12.0,-100.00,North,8,0.0,2.0,34,0.00,,,0.00,0.000000,,2013-03-23 02:32:00,
2013-03-22 22:42:00,38.0,12.0,-100.00,North,8,0.0,2.0,34,0.00,,,0.00,0.000000,,2013-03-23 02:42:00,
2013-03-22 22:52:00,34.0,11.0,-100.00,NNE,20,0.0,1.0,38,0.00,,,0.00,0.000000,,2013-03-23 02:52:00,
2013-03-22 23:12:00,34.0,11.0,-100.00,NNE,20,0.0,1.0,38,0.00,,,0.00,0.000000,,2013-03-23 03:12:00,
2013-03-22 23:23:00,34.0,11.0,-100.00,NNE,20,0.0,1.0,38,0.00,,,0.00,0.000000,,2013-03-23 03:23:00,
2013-03-22 23:33:00,34.0,11.0,-100.00,NNE,20,0.0,1.0,38,0.00,,,0.00,0.000000,,2013-03-23 03:33:00,
2013-03-22 23:43:00,34.0,11.0,-100.00,NNE,20,0.0,1.0,38,0.00,,,0.00,0.000000,,2013-03-23 03:43:00,
2013-03-22 23:52:00,34.0,13.0,-100.00,NE,37,0.0,1.0,41,0.00,,,0.00,0.000000,,2013-03-23 03:52:00,